Location: Albany
(35.0000°S, 118.0000°E)
Time: 00:00:35
(UTC-04:00)

ISS - All Passes

Search period start: 01 October 2014 00:00
Search period end: 11 October 2014 00:00
Orbit: 413 x 416 km, 51.6° (Epoch: 30 September)

Date Brightness Start Highest point End Pass type
(mag) Time Alt. Az. Time Alt. Az. Time Alt. Az.
01 Oct - 03:14:38 10° S 03:16:35 14° SSE 03:18:31 10° ESE daylight
01 Oct - 04:50:14 10° SW 04:53:38 76° NW 04:57:00 10° NE daylight
01 Oct - 19:54:29 10° N 19:56:46 17° NE 19:59:04 10° E daylight
01 Oct - 21:30:04 10° WNW 21:33:14 38° SW 21:36:26 10° SSE daylight
02 Oct - 02:27:00 10° SSE 02:27:12 10° SSE 02:27:24 10° SSE daylight
02 Oct - 04:01:11 10° SW 04:04:32 54° SE 04:07:51 10° ENE daylight
02 Oct - 05:39:32 10° WNW 05:40:51 12° NW 05:42:10 10° NNW daylight
02 Oct - 20:40:43 10° NW 20:44:04 72° SW 20:47:27 10° SE daylight
02 Oct - 22:20:02 10° SW 22:21:17 12° SSW 22:22:33 10° S daylight
03 Oct - 03:12:16 10° SSW 03:15:20 30° SE 03:18:22 10° E daylight
03 Oct - 04:49:11 10° WSW 04:51:54 22° NW 04:54:36 10° N daylight
03 Oct - 19:51:40 10° NNW 19:54:57 56° NE 19:58:17 10° SE daylight
03 Oct - 21:29:37 10° WSW 21:31:53 17° SSW 21:34:11 10° SSE daylight
04 Oct - 02:23:29 10° SSW 02:26:01 19° SSE 02:28:33 10° E daylight
04 Oct - 03:59:37 10° WSW 04:02:52 44° NW 04:06:05 10° NNE daylight
04 Oct - 19:02:58 10° N 19:05:53 28° NE 19:08:49 10° ESE daylight
04 Oct - 20:39:40 10° W 20:42:32 26° SW 20:45:27 10° SSE daylight
05 Oct - 01:34:56 10° S 01:36:37 13° SSE 01:38:18 10° SE daylight
05 Oct - 03:10:20 10° SW 03:13:45 90° SSW 03:17:07 10° NE daylight
05 Oct - 18:14:54 10° NNE 18:16:51 15° NE 18:18:49 10° E daylight
05 Oct - 19:50:01 10° WNW 19:53:15 43° SW 19:56:31 10° SE daylight
06 Oct - 02:21:14 10° SW 02:24:31 46° SE 02:27:47 10° ENE daylight
06 Oct - 03:59:04 10° W 04:00:54 14° NW 04:02:43 10° NNW daylight
06 Oct - 19:00:39 10° NW 19:04:00 85° SW 19:07:24 10° SE daylight
06 Oct - 20:39:34 10° SW 20:41:09 13° SSW 20:42:44 10° S daylight
07 Oct - 01:32:15 10° SSW 01:35:12 27° SE 01:38:08 10° E daylight
07 Oct - 03:08:57 10° WSW 03:11:50 26° NW 03:14:42 10° N daylight
07 Oct - 18:11:35 10° NNW 18:14:49 46° NE 18:18:04 10° ESE daylight
07 Oct - 19:49:13 10° WSW 19:51:40 18° SSW 19:54:09 10° SSE daylight
08 Oct - 00:43:26 10° SSW 00:45:47 17° SSE 00:48:08 10° ESE daylight
08 Oct - 02:19:23 10° WSW 02:22:42 53° NW 02:25:58 10° NNE daylight
08 Oct - 17:22:56 10° N 17:25:40 23° NE 17:28:26 10° ESE daylight
08 Oct - 18:59:16 10° W 19:02:15 29° SW 19:05:16 10° SSE daylight
08 Oct - 23:54:54 10° S 23:56:16 12° SSE 23:57:38 10° SE daylight
09 Oct - 01:30:04 10° SW 01:33:28 76° SE 01:36:49 10° NE daylight
09 Oct - 16:35:06 10° NNE 16:36:34 12° NE 16:38:02 10° E visible
09 Oct - 18:09:36 10° WNW 18:12:53 51° SW 18:16:12 10° SE daylight
10 Oct - 00:40:54 10° SSW 00:44:08 39° SE 00:47:19 10° ENE daylight
10 Oct - 02:18:21 10° W 02:20:34 17° NW 02:22:45 10° N daylight
10 Oct - 17:20:13 10° NW 17:23:34 80° NE 17:26:57 10° SE daylight
10 Oct - 18:58:46 10° WSW 19:00:38 14° SSW 19:02:29 10° S daylight
10 Oct - 23:51:53 10° SSW 23:54:42 24° SSE 23:57:29 10° E daylight
